Regional Weather Roundup
Issued by NWS Kansas City/Pleasant Hill, MO

Home | Current Version | Previous Version | Graphics & Text | Print | Product List | Glossary Off
Versions: 1 2 3 4 5 6 7 8 9 10 11 12 13 14 15 16 17 18 19 20 21 22 23 24 25 26 27 28

000
ASUS43 KEAX 290310
RWREAX

WEATHER ROUNDUP FOR EASTERN KANSAS AND NORTHWEST MISSOURI
NATIONAL WEATHER SERVICE KANSAS CITY/PLEASANT HILL MO
1000 PM CDT TUE MAR 28 2017

KSZ040-057-103>105-MOZ028-029-037-043-290400-
...KANSAS CITY METROPOLITAN AREA...

CITY           SKY/WX    TMP DP  RH WIND       PRES   REMARKS
K.C. INTL      CLOUDY    53  49  86 E16       30.02R
K.C. DOWNTOWN  CLOUDY    54  50  86 E10       30.02R
LEES SUMMIT    CLOUDY    53  50  89 E14       30.02R
OLATHE - IXD   CLOUDY    53  49  86 E15       30.01R
OLATHE - OJC   CLOUDY    52  51  97 E15       30.00R
LAWRENCE       CLOUDY    54  50  86 NE13      30.01F

$$

MOZ001>008-011>017-020>025-030>033-038>040-044>046-053-054-290400-
...NORTHERN AND CENTRAL MISSOURI...

CITY           SKY/WX    TMP DP  RH WIND       PRES   REMARKS
ST. JOSEPH     CLOUDY    53  49  86 E12       30.04R
MOSBY          CLOUDY    54  46  76 E9G20     30.02S
WARRENSBURG    CLOUDY    54  48  82 NE15      30.01R
WHITEMAN AFB   CLOUDY    55  55 100 E10       30.01R
CLINTON        CLOUDY    54  50  87 E12       30.00R
SEDALIA        CLOUDY    56  50  80 E15G21    30.03F
WARSAW         NOT AVBL
CHILLICOTHE      N/A     52  48  86 NE10      30.07F
KIRKSVILLE     CLOUDY    51  47  86 E13       30.10F

$$

MOZ041-047>049-056>058-063>065-088>090-097-290400-
...EASTERN AND SOUTHERN MISSOURI...

CITY           SKY/WX    TMP DP  RH WIND       PRES   REMARKS
ST. LOUIS INTL CLOUDY    56  47  71 NE13      30.11R
SPIRIT OF STL  CLOUDY    55  49  80 E10       30.08F
COLUMBIA       CLOUDY    54  50  86 E14G22    30.05F
JEFFERSON CITY CLOUDY    57  49  74 E9        30.05F
ROLLA          CLOUDY    53  49  86 E10       30.04F
OSAGE BEACH    CLOUDY    53  49  86 E10G18    30.03F
SPRINGFIELD    CLEAR     59  50  72 E10       29.95R
JOPLIN         CLOUDY    59  53  80 E12       29.86F
WEST PLAINS    CLOUDY    58  50  75 E8        30.03R

$$

IAZ060-094-KSZ022-034>040-054-083-096-NEZ052-066-093-290400-
...KANSAS...SOUTHEAST NEBRASKA AND IOWA...

CITY           SKY/WX    TMP DP  RH WIND       PRES   REMARKS
TOPEKA         CLOUDY    53  51  93 E13       30.00R
MANHATTAN      LGT RAIN  51  49  92 E17G23    29.98F FOG
EMPORIA        CLOUDY    53  51  93 NE21      29.89F
CHANUTE        CLOUDY    57  50  77 E16G25    29.86F
WICHITA        TSTM      51  51 100 N15       29.88S FOG
OMAHA          CLOUDY    50  41  71 NE15      30.08F
LINCOLN        LGT RAIN  48  42  80 NE10      30.07F
FALLS CITY     CLOUDY    52  47  83 E10       30.03R
LAMONI         CLOUDY    50  45  83 NE10      30.08F
DES MOINES     CLOUDY    51  43  74 E8        30.14R

$$





USA.gov is the U.S. government's official web portal to all federal, state and local government web resources and services.